Station Historical Data
Daily Summary for January 14, 2017 Units:  Metric    English   Both
« Previous Day
Next Day »
Daily Weekly Monthly Yearly Custom
  High: Low: Average:
Temperature: -1.5 °C -6.9 °C -4.4 °C
Dew Point: -6.3 °C -9.6 °C -8.2 °C
Humidity: 84% 65% 75%
Wind Speed: 11.3km/h 0km/h 2.4km/h
Wind Gust: 16.1km/h - -
Wind- - ESE
Pressure: 1041.5 hPa 1028.7 hPa -
Precipitation: 0 mm    
Historical Graphs
 
 
Tabular Data for January 14, 2017
Time Temperature Dew Point Pressure Wind Wind Speed Wind Gust Humidity Rainfall Rate (Hourly)
00:04 -5.4 °C -8.8 °C 1041.5 hPa NE 8 km/h 16.1 km/h 77% 0 mm
00:09 -5.5 °C -8.9 °C 1041.5 hPa NE 8 km/h 16.1 km/h 77% 0 mm
00:14 -5.6 °C -8.9 °C 1041.5 hPa NE 6.4 km/h 14.5 km/h 77% 0 mm
00:19 -5.6 °C -9 °C 1041.5 hPa NE 6.4 km/h 14.5 km/h 77% 0 mm
00:24 -5.6 °C -8.9 °C 1041.5 hPa NE 4.8 km/h 12.9 km/h 77% 0 mm
00:29 -5.6 °C -8.9 °C 1041.5 hPa ENE 6.4 km/h 12.9 km/h 77% 0 mm
00:34 -5.6 °C -8.9 °C 1041.2 hPa NE 3.2 km/h 11.3 km/h 77% 0 mm
00:39 -5.6 °C -9 °C 1041.5 hPa ENE 4.8 km/h 12.9 km/h 77% 0 mm
00:44 -5.7 °C -9.1 °C 1041.5 hPa NE 4.8 km/h 11.3 km/h 77% 0 mm
00:49 -5.7 °C -9.1 °C 1041.2 hPa ENE 6.4 km/h 12.9 km/h 77% 0 mm
00:54 -5.7 °C -9.1 °C 1041.2 hPa NE 8 km/h 12.9 km/h 77% 0 mm
00:59 -5.8 °C -9.2 °C 1041.2 hPa ENE 6.4 km/h 12.9 km/h 77% 0 mm
01:04 -5.7 °C -8.9 °C 1041.2 hPa NE 11.3 km/h 12.9 km/h 78% 0 mm
01:09 -5.8 °C -9.2 °C 1041.2 hPa NE 6.4 km/h 14.5 km/h 77% 0 mm
01:14 -5.8 °C -9.2 °C 1040.9 hPa NE 8 km/h 14.5 km/h 77% 0 mm
01:19 -5.8 °C -9.1 °C 1040.9 hPa NE 8 km/h 14.5 km/h 78% 0 mm
01:24 -5.9 °C -9.1 °C 1040.9 hPa NE 8 km/h 14.5 km/h 78% 0 mm
01:29 -5.9 °C -9.1 °C 1040.9 hPa NE 8 km/h 12.9 km/h 78% 0 mm
01:34 -5.9 °C -9.1 °C 1040.9 hPa NE 3.2 km/h 11.3 km/h 78% 0 mm
01:39 -5.9 °C -9.1 °C 1040.9 hPa NE 4.8 km/h 14.5 km/h 78% 0 mm
01:44 -5.9 °C -9.1 °C 1040.9 hPa NNE 8 km/h 14.5 km/h 78% 0 mm
01:49 -5.9 °C -8.9 °C 1040.9 hPa ENE 11.3 km/h 11.3 km/h 79% 0 mm
01:54 -5.9 °C -9.1 °C 1040.9 hPa NE 6.4 km/h 12.9 km/h 78% 0 mm
01:59 -5.9 °C -8.9 °C 1040.9 hPa NE 4.8 km/h 12.9 km/h 79% 0 mm
02:04 -5.9 °C -9.2 °C 1040.9 hPa NE 4.8 km/h 12.9 km/h 78% 0 mm
02:09 -6 °C -9.2 °C 1040.9 hPa NE 6.4 km/h 12.9 km/h 78% 0 mm
02:14 -6.1 °C -9.1 °C 1040.5 hPa ENE 4.8 km/h 12.9 km/h 79% 0 mm
02:19 -6.1 °C -9 °C 1040.5 hPa ENE 8 km/h 11.3 km/h 80% 0 mm
02:24 -6.2 °C -9.1 °C 1040.5 hPa East 8 km/h 11.3 km/h 80% 0 mm
02:29 -6.3 °C -9.3 °C 1040.5 hPa NE 6.4 km/h 16.1 km/h 79% 0 mm
02:34 -6.3 °C -9.6 °C 1040.2 hPa ENE 3.2 km/h 14.5 km/h 78% 0 mm
02:39 -6.3 °C -9.6 °C 1040.2 hPa NE 6.4 km/h 14.5 km/h 78% 0 mm
02:44 -6.3 °C -9.6 °C 1040.2 hPa ENE 4.8 km/h 12.9 km/h 78% 0 mm
02:49 -6.4 °C -9.4 °C 1040.2 hPa ENE 8 km/h 14.5 km/h 79% 0 mm
02:54 -6.4 °C -9.4 °C 1040.2 hPa NE 6.4 km/h 12.9 km/h 79% 0 mm
02:59 -6.4 °C -9.5 °C 1040.2 hPa NE 4.8 km/h 12.9 km/h 79% 0 mm
03:04 -6.5 °C -9.6 °C 1040.2 hPa NE 4.8 km/h 12.9 km/h 79% 0 mm
03:09 -6.5 °C -9.4 °C 1040.2 hPa NE 3.2 km/h 12.9 km/h 80% 0 mm
03:14 -6.5 °C -9.4 °C 1039.8 hPa NE 4.8 km/h 8 km/h 80% 0 mm
03:19 -6.6 °C -9.4 °C 1039.8 hPa NE 6.4 km/h 8 km/h 80% 0 mm
03:24 -6.6 °C -9.4 °C 1039.8 hPa NE 3.2 km/h 8 km/h 80% 0 mm
03:29 -6.6 °C -9.4 °C 1039.8 hPa NE 3.2 km/h 9.7 km/h 80% 0 mm
03:34 -6.6 °C -9.4 °C 1039.5 hPa NE 4.8 km/h 9.7 km/h 80% 0 mm
03:39 -6.6 °C -9.5 °C 1039.5 hPa NE 4.8 km/h 9.7 km/h 80% 0 mm
03:44 -6.7 °C -9.6 °C 1039.5 hPa NE 4.8 km/h 8 km/h 80% 0 mm
03:49 -6.7 °C -9.6 °C 1039.5 hPa NE 4.8 km/h 8 km/h 80% 0 mm
03:54 -6.7 °C -9.4 °C 1039.5 hPa NE 3.2 km/h 8 km/h 81% 0 mm
03:59 -6.7 °C -9.4 °C 1039.2 hPa NE 1.6 km/h 6.4 km/h 81% 0 mm
04:04 -6.8 °C -9.5 °C 1039.2 hPa NE 3.2 km/h 6.4 km/h 81% 0 mm
04:09 -6.8 °C -9.4 °C 1039.2 hPa NE 3.2 km/h 6.4 km/h 82% 0 mm
04:14 -6.8 °C -9.3 °C 1039.2 hPa ENE 4.8 km/h 6.4 km/h 82% 0 mm
04:19 -6.8 °C -9.3 °C 1039.2 hPa NE 4.8 km/h 8 km/h 82% 0 mm
04:24 -6.8 °C -9.3 °C 1039.2 hPa NE 3.2 km/h 8 km/h 82% 0 mm
04:29 -6.8 °C -9.3 °C 1039.2 hPa NE 3.2 km/h 4.8 km/h 82% 0 mm
04:34 -6.8 °C -9.3 °C 1038.8 hPa NE 1.6 km/h 4.8 km/h 82% 0 mm
04:39 -6.8 °C -9.3 °C 1038.8 hPa NE 3.2 km/h 6.4 km/h 82% 0 mm
04:44 -6.8 °C -9.3 °C 1038.8 hPa NE 3.2 km/h 6.4 km/h 82% 0 mm
04:49 -6.8 °C -9.3 °C 1038.8 hPa NE 3.2 km/h 6.4 km/h 82% 0 mm
04:54 -6.8 °C -9.4 °C 1038.8 hPa NE 3.2 km/h 6.4 km/h 82% 0 mm
04:59 -6.8 °C -9.3 °C 1038.5 hPa Calm   6.4 km/h 82% 0 mm
05:04 -6.8 °C -9.3 °C 1038.5 hPa NE 1.6 km/h 6.4 km/h 82% 0 mm
05:09 -6.8 °C -9.3 °C 1038.5 hPa ENE 3.2 km/h 6.4 km/h 82% 0 mm
05:14 -6.8 °C -9.3 °C 1038.5 hPa NE 3.2 km/h 6.4 km/h 82% 0 mm
05:19 -6.8 °C -9.3 °C 1038.5 hPa NE 3.2 km/h 4.8 km/h 82% 0 mm
05:24 -6.8 °C -9.3 °C 1038.5 hPa NE 3.2 km/h 6.4 km/h 82% 0 mm
05:29 -6.8 °C -9.4 °C 1038.5 hPa NE 3.2 km/h 4.8 km/h 82% 0 mm
05:34 -6.9 °C -9.4 °C 1038.5 hPa Calm   4.8 km/h 82% 0 mm
05:39 -6.9 °C -9.5 °C 1038.5 hPa NE 1.6 km/h 4.8 km/h 82% 0 mm
05:44 -6.9 °C -9.4 °C 1038.5 hPa Calm   6.4 km/h 82% 0 mm
05:49 -6.9 °C -9.4 °C 1038.1 hPa NE 1.6 km/h 6.4 km/h 82% 0 mm
05:54 -6.9 °C -9.4 °C 1038.1 hPa NE 1.6 km/h 6.4 km/h 82% 0 mm
05:59 -6.8 °C -9.4 °C 1038.1 hPa NE 3.2 km/h 8 km/h 82% 0 mm
06:04 -6.9 °C -9.4 °C 1038.1 hPa NE 3.2 km/h 4.8 km/h 82% 0 mm
06:09 -6.9 °C -9.5 °C 1038.1 hPa NE 1.6 km/h 4.8 km/h 82% 0 mm
06:14 -6.9 °C -9.5 °C 1038.1 hPa Calm     82% 0 mm
06:19 -6.9 °C -9.3 °C 1038.1 hPa Calm   4.8 km/h 83% 0 mm
06:24 -6.8 °C -9.4 °C 1038.1 hPa Calm   4.8 km/h 82% 0 mm
06:29 -6.7 °C -9.3 °C 1037.8 hPa Calm   1.6 km/h 82% 0 mm
06:34 -6.6 °C -9.3 °C 1037.5 hPa ENE 6.4 km/h 8 km/h 81% 0 mm
06:39 -6.4 °C -9.2 °C 1037.5 hPa East 3.2 km/h 9.7 km/h 81% 0 mm
06:44 -6.4 °C -9.3 °C 1037.5 hPa ENE 3.2 km/h 11.3 km/h 80% 0 mm
06:49 -6.3 °C -9.2 °C 1037.5 hPa East 1.6 km/h 11.3 km/h 80% 0 mm
06:54 -6.3 °C -9.4 °C 1037.5 hPa East 3.2 km/h 9.7 km/h 79% 0 mm
06:59 -6.2 °C -9.3 °C 1037.1 hPa ENE 3.2 km/h 9.7 km/h 79% 0 mm
07:04 -6.2 °C -9.3 °C 1037.5 hPa NE 3.2 km/h 9.7 km/h 79% 0 mm
07:09 -6.2 °C -9.2 °C 1037.1 hPa NE 6.4 km/h 12.9 km/h 79% 0 mm
07:14 -6.1 °C -9.2 °C 1037.1 hPa NE 1.6 km/h 8 km/h 79% 0 mm
07:19 -6.1 °C -9.1 °C 1037.1 hPa ENE 3.2 km/h 9.7 km/h 79% 0 mm
07:24 -6 °C -9.1 °C 1036.8 hPa East 4.8 km/h 6.4 km/h 79% 0 mm
07:29 -6 °C -9.1 °C 1036.8 hPa ESE 3.2 km/h 11.3 km/h 79% 0 mm
07:34 -5.9 °C -8.9 °C 1036.8 hPa NE 1.6 km/h 4.8 km/h 79% 0 mm
07:39 -5.8 °C -8.9 °C 1036.8 hPa NE 4.8 km/h 8 km/h 79% 0 mm
07:44 -5.8 °C -9.1 °C 1036.8 hPa ENE 1.6 km/h 6.4 km/h 78% 0 mm
07:49 -5.8 °C -8.8 °C 1036.8 hPa ENE 3.2 km/h 6.4 km/h 79% 0 mm
07:54 -5.7 °C -8.9 °C 1036.8 hPa ENE 3.2 km/h 8 km/h 78% 0 mm
07:59 -5.7 °C -8.9 °C 1036.8 hPa ENE 3.2 km/h 8 km/h 78% 0 mm
08:04 -5.7 °C -8.9 °C 1036.5 hPa ENE 3.2 km/h 8 km/h 78% 0 mm
08:09 -5.6 °C -8.8 °C 1036.5 hPa NE 3.2 km/h 8 km/h 78% 0 mm
08:14 -5.6 °C -8.8 °C 1036.5 hPa NE 1.6 km/h 6.4 km/h 78% 0 mm
08:19 -5.5 °C -8.7 °C 1036.5 hPa Calm   4.8 km/h 78% 0 mm
08:24 -5.4 °C -8.7 °C 1036.8 hPa ENE 1.6 km/h 6.4 km/h 78% 0 mm
08:29 -5.4 °C -8.7 °C 1036.5 hPa ENE 1.6 km/h 8 km/h 78% 0 mm
08:34 -5.3 °C -8.6 °C 1036.5 hPa ENE 3.2 km/h 9.7 km/h 78% 0 mm
08:39 -5.3 °C -8.5 °C 1036.1 hPa ENE 3.2 km/h 8 km/h 78% 0 mm
08:44 -5.2 °C -8.6 °C 1036.1 hPa East 1.6 km/h 8 km/h 77% 0 mm
08:49 -5.2 °C -8.6 °C 1036.1 hPa ENE 1.6 km/h 8 km/h 77% 0 mm
08:54 -5.1 °C -8.4 °C 1036.1 hPa ENE 3.2 km/h 8 km/h 77% 0 mm
08:59 -5.1 °C -8.4 °C 1036.1 hPa ENE 3.2 km/h 8 km/h 77% 0 mm
09:04 -4.9 °C -8.3 °C 1036.1 hPa ENE 3.2 km/h 8 km/h 77% 0 mm
09:09 -4.9 °C -8.3 °C 1036.1 hPa ENE 3.2 km/h 6.4 km/h 77% 0 mm
09:14 -4.8 °C -8.2 °C 1035.8 hPa ENE 1.6 km/h 6.4 km/h 77% 0 mm
09:19 -4.7 °C -8.3 °C 1035.8 hPa NE 4.8 km/h 6.4 km/h 76% 0 mm
09:24 -4.6 °C -8.2 °C 1035.8 hPa NE 1.6 km/h 8 km/h 76% 0 mm
09:29 -4.6 °C -8.2 °C 1035.8 hPa NE 3.2 km/h 8 km/h 76% 0 mm
09:34 -4.6 °C -8.2 °C 1035.4 hPa ENE 1.6 km/h 9.7 km/h 76% 0 mm
09:39 -4.4 °C -8.2 °C 1035.4 hPa NE 3.2 km/h 11.3 km/h 75% 0 mm
09:44 -4.4 °C -8.2 °C 1035.4 hPa NNE 9.7 km/h 9.7 km/h 75% 0 mm
09:49 -4.3 °C -8.1 °C 1035.4 hPa NE 3.2 km/h 9.7 km/h 75% 0 mm
09:54 -4.2 °C -8 °C 1035.4 hPa ENE 1.6 km/h 6.4 km/h 75% 0 mm
09:59 -4.1 °C -8.1 °C 1035.4 hPa NE 3.2 km/h 8 km/h 74% 0 mm
10:04 -4.1 °C -8.1 °C 1035.4 hPa NE 4.8 km/h 9.7 km/h 74% 0 mm
10:09 -4 °C -8.1 °C 1035.4 hPa NE 4.8 km/h 9.7 km/h 73% 0 mm
10:14 -3.9 °C -8 °C 1035.1 hPa NE 3.2 km/h 8 km/h 73% 0 mm
10:19 -3.8 °C -7.9 °C 1035.1 hPa NE 3.2 km/h 8 km/h 73% 0 mm
10:24 -3.7 °C -7.8 °C 1035.1 hPa ENE 1.6 km/h 6.4 km/h 73% 0 mm
10:29 -3.7 °C -7.8 °C 1035.1 hPa NE 1.6 km/h 9.7 km/h 73% 0 mm
10:34 -3.7 °C -8 °C 1034.8 hPa Calm   8 km/h 72% 0 mm
10:39 -3.6 °C -8.1 °C 1034.8 hPa Calm   4.8 km/h 71% 0 mm
10:44 -3.6 °C -7.9 °C 1034.8 hPa Calm   4.8 km/h 72% 0 mm
10:49 -3.5 °C -7.8 °C 1034.8 hPa NNE 1.6 km/h 4.8 km/h 72% 0 mm
10:54 -3.5 °C -7.8 °C 1034.8 hPa NE 3.2 km/h 6.4 km/h 72% 0 mm
10:59 -3.5 °C -8 °C 1034.4 hPa NE 3.2 km/h 6.4 km/h 71% 0 mm
11:04 -3.4 °C -7.9 °C 1034.4 hPa NE 3.2 km/h 6.4 km/h 71% 0 mm
11:09 -3.4 °C -7.9 °C 1034.1 hPa NE 3.2 km/h 6.4 km/h 71% 0 mm
11:14 -3.3 °C -7.7 °C 1034.1 hPa NE 3.2 km/h 8 km/h 72% 0 mm
11:19 -3.4 °C -8.1 °C 1033.7 hPa NE 3.2 km/h 8 km/h 70% 0 mm
11:24 -3.2 °C -7.9 °C 1033.7 hPa NE 1.6 km/h 4.8 km/h 70% 0 mm
11:29 -3.1 °C -7.8 °C 1033.4 hPa ENE 4.8 km/h 4.8 km/h 70% 0 mm
11:34 -3 °C -7.7 °C 1033.4 hPa East 1.6 km/h 4.8 km/h 70% 0 mm
11:39 -2.8 °C -7.6 °C 1033.1 hPa ENE 1.6 km/h 4.8 km/h 70% 0 mm
11:44 -2.7 °C -7.4 °C 1033.1 hPa NE 1.6 km/h 4.8 km/h 70% 0 mm
11:49 -2.6 °C -7.5 °C 1032.7 hPa NE 3.2 km/h 6.4 km/h 69% 0 mm
11:54 -2.7 °C -7.4 °C 1032.7 hPa ESE 1.6 km/h 8 km/h 70% 0 mm
11:59 -2.9 °C -7.8 °C 1032.7 hPa Calm   4.8 km/h 69% 0 mm
12:04 -2.9 °C -7.8 °C 1032.4 hPa NE 1.6 km/h 4.8 km/h 69% 0 mm
12:09 -2.8 °C -7.6 °C 1032.7 hPa NE 1.6 km/h 4.8 km/h 70% 0 mm
12:14 -2.8 °C -7.4 °C 1032.4 hPa East 1.6 km/h 4.8 km/h 71% 0 mm
12:19 -2.8 °C -7.7 °C 1032.4 hPa SE 1.6 km/h 4.8 km/h 69% 0 mm
12:24 -2.9 °C -7.8 °C 1032.4 hPa ENE 1.6 km/h 4.8 km/h 69% 0 mm
12:29 -2.7 °C -7.6 °C 1032.1 hPa NE 3.2 km/h 3.2 km/h 69% 0 mm
12:34 -2.9 °C -7.8 °C 1032.1 hPa Calm   3.2 km/h 69% 0 mm
12:39 -2.8 °C -7.7 °C 1031.7 hPa Calm     69% 0 mm
12:44 -2.7 °C -7.4 °C 1031.7 hPa Calm   3.2 km/h 70% 0 mm
12:49 -2.8 °C -7.9 °C 1031.4 hPa Calm   3.2 km/h 68% 0 mm
12:54 -2.8 °C -7.5 °C 1031.4 hPa Calm   3.2 km/h 70% 0 mm
12:59 -2.7 °C -7.4 °C 1031 hPa Calm     70% 0 mm
13:04 -2.7 °C -7.6 °C 1031 hPa Calm   3.2 km/h 69% 0 mm
13:09 -2.7 °C -7.6 °C 1031 hPa Calm   3.2 km/h 69% 0 mm
13:14 -2.7 °C -7.8 °C 1031 hPa Calm   3.2 km/h 68% 0 mm
13:19 -2.4 °C -7.2 °C 1031 hPa Calm     70% 0 mm
13:24 -2.4 °C -7.3 °C 1031 hPa Calm     69% 0 mm
13:29 -2.4 °C -7.5 °C 1031 hPa Calm     68% 0 mm
13:34 -2.4 °C -7.5 °C 1031 hPa Calm     68% 0 mm
13:39 -2.2 °C -7.3 °C 1031 hPa Calm   4.8 km/h 68% 0 mm
13:44 -2.1 °C -7.2 °C 1031 hPa Calm   4.8 km/h 68% 0 mm
13:49 -2.2 °C -7.5 °C 1030.7 hPa Calm   3.2 km/h 67% 0 mm
13:54 -2.3 °C -7.4 °C 1030.7 hPa WSW 1.6 km/h 1.6 km/h 68% 0 mm
13:59 -2.3 °C -7.6 °C 1030.7 hPa WSW 1.6 km/h 3.2 km/h 67% 0 mm
14:04 -2.2 °C -7.5 °C 1030.4 hPa WSW 1.6 km/h 3.2 km/h 67% 0 mm
14:09 -2.2 °C -7.3 °C 1030.4 hPa SSE 3.2 km/h 4.8 km/h 68% 0 mm
14:14 -2.1 °C -7.4 °C 1030 hPa South 3.2 km/h 6.4 km/h 67% 0 mm
14:19 -2.1 °C -7.6 °C 1030 hPa South 1.6 km/h 6.4 km/h 66% 0 mm
14:24 -2 °C -7.3 °C 1030 hPa Calm   1.6 km/h 67% 0 mm
14:29 -1.9 °C -7.1 °C 1030 hPa Calm   1.6 km/h 68% 0 mm
14:34 -1.8 °C -7.2 °C 1030 hPa Calm   3.2 km/h 67% 0 mm
14:39 -1.9 °C -7.6 °C 1029.7 hPa SW 1.6 km/h 4.8 km/h 65% 0 mm
14:44 -1.8 °C -7.3 °C 1029.7 hPa SW 3.2 km/h 4.8 km/h 66% 0 mm
14:49 -1.9 °C -7.4 °C 1029.7 hPa SW 1.6 km/h 4.8 km/h 66% 0 mm
14:54 -1.8 °C -7.3 °C 1030 hPa WSW 1.6 km/h 4.8 km/h 66% 0 mm
14:59 -1.8 °C -7.3 °C 1029.7 hPa WSW 1.6 km/h 4.8 km/h 66% 0 mm
15:04 -1.9 °C -7.2 °C 1029.7 hPa WSW 1.6 km/h 4.8 km/h 67% 0 mm
15:09 -1.8 °C -7.3 °C 1029.3 hPa Calm   4.8 km/h 66% 0 mm
15:14 -1.8 °C -7.2 °C 1029.3 hPa Calm     67% 0 mm
15:19 -1.8 °C -7.3 °C 1029.3 hPa Calm     66% 0 mm
15:24 -1.8 °C -7.3 °C 1029 hPa Calm     66% 0 mm
15:29 -1.8 °C -7.1 °C 1029 hPa Calm     67% 0 mm
15:34 -1.8 °C -7.1 °C 1029 hPa Calm     67% 0 mm
15:39 -1.7 °C -7.1 °C 1029 hPa Calm     67% 0 mm
15:44 -1.8 °C -7.3 °C 1029 hPa Calm     66% 0 mm
15:49 -1.8 °C -7.1 °C 1029 hPa Calm     67% 0 mm
15:54 -1.8 °C -7.1 °C 1029 hPa Calm     67% 0 mm
15:59 -1.7 °C -7 °C 1029 hPa Calm     67% 0 mm
16:04 -1.7 °C -7 °C 1029 hPa Calm     67% 0 mm
16:09 -1.7 °C -7 °C 1029 hPa Calm     67% 0 mm
16:14 -1.7 °C -7 °C 1029 hPa Calm     67% 0 mm
16:19 -1.7 °C -7 °C 1029 hPa Calm     67% 0 mm
16:24 -1.7 °C -7 °C 1029 hPa Calm     67% 0 mm
16:29 -1.7 °C -7 °C 1029 hPa Calm     67% 0 mm
16:34 -1.6 °C -7.1 °C 1029 hPa WSW 4.8 km/h 6.4 km/h 66% 0 mm
16:39 -1.6 °C -6.9 °C 1029 hPa West 1.6 km/h 4.8 km/h 67% 0 mm
16:44 -1.5 °C -6.7 °C 1029 hPa Calm   4.8 km/h 68% 0 mm
16:49 -1.6 °C -6.5 °C 1029 hPa NNW 3.2 km/h 4.8 km/h 69% 0 mm
16:54 -1.7 °C -6.6 °C 1029 hPa NW 1.6 km/h 4.8 km/h 69% 0 mm
16:59 -1.8 °C -6.7 °C 1029 hPa NNW 1.6 km/h 4.8 km/h 69% 0 mm
17:04 -1.8 °C -6.7 °C 1028.7 hPa NW 1.6 km/h 4.8 km/h 69% 0 mm
17:09 -1.8 °C -6.7 °C 1028.7 hPa WNW 1.6 km/h 8 km/h 69% 0 mm
17:14 -1.8 °C -6.8 °C 1028.7 hPa WNW 3.2 km/h 6.4 km/h 69% 0 mm
17:19 -1.9 °C -6.8 °C 1028.7 hPa WNW 1.6 km/h 4.8 km/h 69% 0 mm
17:24 -1.9 °C -6.6 °C 1029 hPa WNW 3.2 km/h 6.4 km/h 70% 0 mm
17:29 -1.9 °C -6.6 °C 1029 hPa WNW 3.2 km/h 6.4 km/h 70% 0 mm
17:34 -1.9 °C -6.7 °C 1028.7 hPa West 1.6 km/h 6.4 km/h 70% 0 mm
17:39 -1.9 °C -6.7 °C 1028.7 hPa Calm   4.8 km/h 70% 0 mm
17:44 -1.9 °C -6.7 °C 1029 hPa West 1.6 km/h 4.8 km/h 70% 0 mm
17:49 -1.9 °C -6.5 °C 1029 hPa WSW 1.6 km/h 6.4 km/h 71% 0 mm
17:54 -1.9 °C -6.5 °C 1029 hPa WNW 4.8 km/h 4.8 km/h 71% 0 mm
17:59 -2 °C -6.6 °C 1029 hPa WNW 3.2 km/h 6.4 km/h 71% 0 mm
18:04 -2.1 °C -6.4 °C 1029 hPa WNW 3.2 km/h 8 km/h 72% 0 mm
18:09 -2.1 °C -6.4 °C 1029 hPa West 3.2 km/h 8 km/h 72% 0 mm
18:14 -2.1 °C -6.4 °C 1029 hPa West 3.2 km/h 8 km/h 72% 0 mm
18:19 -2.1 °C -6.3 °C 1028.7 hPa West 3.2 km/h 6.4 km/h 73% 0 mm
18:24 -2.2 °C -6.3 °C 1029 hPa WNW 3.2 km/h 6.4 km/h 73% 0 mm
18:29 -2.2 °C -6.4 °C 1029 hPa WNW 3.2 km/h 8 km/h 73% 0 mm
18:34 -2.3 °C -6.4 °C 1029 hPa NW 4.8 km/h 6.4 km/h 73% 0 mm
18:39 -2.4 °C -6.8 °C 1029 hPa WNW 3.2 km/h 9.7 km/h 72% 0 mm
18:44 -2.6 °C -6.9 °C 1029 hPa WNW 4.8 km/h 8 km/h 72% 0 mm
18:49 -2.8 °C -6.9 °C 1029 hPa WNW 4.8 km/h 8 km/h 73% 0 mm
18:54 -2.8 °C -7 °C 1029 hPa Calm   6.4 km/h 73% 0 mm
18:59 -3.1 °C -7.1 °C 1029 hPa NW 3.2 km/h 4.8 km/h 74% 0 mm
19:04 -3.2 °C -7.2 °C 1029 hPa NW 1.6 km/h 4.8 km/h 74% 0 mm
19:09 -3.3 °C -7.3 °C 1029 hPa WNW 1.6 km/h 4.8 km/h 74% 0 mm
19:14 -3.4 °C -7.4 °C 1029 hPa WNW 1.6 km/h 4.8 km/h 74% 0 mm
19:19 -3.5 °C -7.4 °C 1029 hPa Calm   1.6 km/h 74% 0 mm
19:24 -3.7 °C -7.4 °C 1029 hPa Calm   1.6 km/h 75% 0 mm
19:29 -3.7 °C -7.5 °C 1029 hPa Calm     75% 0 mm
19:34 -4 °C -7.6 °C 1029 hPa Calm     76% 0 mm
19:39 -4.1 °C -7.7 °C 1029 hPa Calm   3.2 km/h 76% 0 mm
19:44 -4.1 °C -7.7 °C 1029 hPa WNW 3.2 km/h 4.8 km/h 76% 0 mm
19:49 -4.1 °C -7.7 °C 1029 hPa Calm   6.4 km/h 76% 0 mm
19:54 -4.2 °C -7.4 °C 1029 hPa Calm   3.2 km/h 78% 0 mm
19:59 -4.2 °C -7.5 °C 1029 hPa Calm   4.8 km/h 78% 0 mm
20:04 -4.3 °C -7.7 °C 1029 hPa Calm     77% 0 mm
20:09 -4.4 °C -7.8 °C 1028.7 hPa Calm     77% 0 mm
20:14 -4.5 °C -7.9 °C 1028.7 hPa Calm     77% 0 mm
20:19 -4.7 °C -8 °C 1028.7 hPa Calm     78% 0 mm
20:24 -4.8 °C -8.1 °C 1028.7 hPa Calm     78% 0 mm
20:29 -5 °C -8.1 °C 1028.7 hPa Calm     79% 0 mm
20:34 -5.1 °C -8.2 °C 1029 hPa Calm     79% 0 mm
20:39 -5.1 °C -8.1 °C 1029 hPa Calm     79% 0 mm
20:44 -5.1 °C -8.2 °C 1029 hPa Calm     79% 0 mm
20:49 -5.2 °C -8.1 °C 1029 hPa Calm     80% 0 mm
20:54 -5.2 °C -8.2 °C 1029 hPa Calm     79% 0 mm
20:59 -5.3 °C -8.3 °C 1029 hPa Calm     79% 0 mm
21:04 -5.4 °C -8.3 °C 1029 hPa Calm     80% 0 mm
21:09 -5.6 °C -8.4 °C 1029 hPa Calm     80% 0 mm
21:14 -5.8 °C -8.5 °C 1029 hPa Calm     81% 0 mm
21:19 -5.7 °C -8.4 °C 1029 hPa Calm     81% 0 mm
21:24 -5.8 °C -8.5 °C 1029 hPa Calm     81% 0 mm
21:29 -5.8 °C -8.5 °C 1029 hPa Calm     81% 0 mm
21:34 -5.6 °C -8.3 °C 1029 hPa Calm     81% 0 mm
21:39 -5.6 °C -8.3 °C 1029 hPa Calm     81% 0 mm
21:44 -5.6 °C -8.3 °C 1029 hPa Calm     81% 0 mm
21:49 -5.6 °C -8.3 °C 1029 hPa Calm     81% 0 mm
21:54 -5.4 °C -8.2 °C 1029 hPa Calm   4.8 km/h 81% 0 mm
21:59 -5.4 °C -8.3 °C 1029 hPa Calm   4.8 km/h 80% 0 mm
22:04 -5.6 °C -8.3 °C 1029 hPa Calm   1.6 km/h 81% 0 mm
22:09 -5.6 °C -8.2 °C 1029 hPa West 1.6 km/h 4.8 km/h 82% 0 mm
22:14 -5.6 °C -8.3 °C 1029 hPa Calm   3.2 km/h 81% 0 mm
22:19 -5.7 °C -8.4 °C 1029 hPa Calm   3.2 km/h 81% 0 mm
22:24 -5.9 °C -8.4 °C 1029 hPa Calm     82% 0 mm
22:29 -6.1 °C -8.6 °C 1029 hPa Calm     82% 0 mm
22:34 -6.2 °C -8.6 °C 1029.3 hPa Calm     83% 0 mm
22:39 -6.2 °C -8.6 °C 1029.3 hPa Calm   1.6 km/h 83% 0 mm
22:44 -6.1 °C -8.5 °C 1029.3 hPa Calm     83% 0 mm
22:49 -6 °C -8.4 °C 1029.3 hPa Calm   1.6 km/h 83% 0 mm
22:54 -5.6 °C -7.8 °C 1029.3 hPa Calm   4.8 km/h 84% 0 mm
22:59 -5.2 °C -7.6 °C 1029.3 hPa West 1.6 km/h 6.4 km/h 83% 0 mm
23:04 -4.8 °C -7.4 °C 1029.3 hPa West 1.6 km/h 6.4 km/h 82% 0 mm
23:09 -4.7 °C -7.5 °C 1029.3 hPa West 1.6 km/h 4.8 km/h 81% 0 mm
23:14 -4.7 °C -7.6 °C 1029.3 hPa West 3.2 km/h 4.8 km/h 80% 0 mm
23:19 -4.6 °C -7.6 °C 1029.3 hPa West 1.6 km/h 6.4 km/h 80% 0 mm
23:24 -4.6 °C -7.6 °C 1029.3 hPa WSW 3.2 km/h 4.8 km/h 80% 0 mm
23:29 -4.4 °C -7.6 °C 1029.3 hPa WSW 3.2 km/h 9.7 km/h 79% 0 mm
23:34 -4.2 °C -7.5 °C 1029.3 hPa WSW 8 km/h 11.3 km/h 78% 0 mm
23:39 -4.1 °C -7.4 °C 1029.3 hPa SW 6.4 km/h 8 km/h 78% 0 mm
23:44 -4 °C -7.4 °C 1029.3 hPa West 1.6 km/h 11.3 km/h 77% 0 mm
23:49 -3.9 °C -7.4 °C 1029.3 hPa West 3.2 km/h 8 km/h 77% 0 mm
23:54 -3.9 °C -7.4 °C 1029.3 hPa West 4.8 km/h 9.7 km/h 77% 0 mm
23:59 -3.9 °C -7.4 °C 1029.3 hPa West 4.8 km/h 9.7 km/h 77% 0 mm
Buffalo, New York, USA
Compliments of Weather Underground - 2.5 mb